Temperature
20 21 21 21 22 21 20 19 19 19 19 20 19 19 19 20 20 20 20 20 20 20 20 20 20 20 20 20 19 19 19 19 19 19 18 18 18 17 17 17 17 17 16 16
19 21 21 21 22 22 21 21 20 20 19 18 18 18 19 19 19 19 19 19 20 20 20 20 20 20 20 20 19 19 19 19 19 19 18 18 18 17 17 17 17 16 16 16
18 19 20 20 20 21 21 21 20 19 18 17 17 17 17 18 18 18 19 19 19 19 19 20 20 20 20 19 19 19 19 19 19 18 18 18 18 17 17 17 17 16 16 16
16 18 18 19 19 21 20 20 19 19 18 17 17 17 17 17 18 17 18 19 19 19 19 19 20 20 19 19 19 19 18 18 18 18 18 18 17 17 17 17 17 16 16 16
15 16 17 19 19 19 18 18 18 18 17 17 16 16 15 16 17 17 17 18 18 18 19 19 19 19 19 18 18 18 18 18 17 17 17 17 17 17 17 16 16 16 16 16
15 16 17 18 19 19 18 17 18 17 17 17 17 15 14 15 16 16 16 16 17 17 18 18 17 17 17 17 17 17 17 17 16 16 16 16 16 16 16 16 16 16 15 15
15 16 16 17 18 18 18 17 17 17 17 17 16 15 14 15 15 15 15 16 16 16 16 16 16 17 17 16 16 16 16 16 16 16 16 16 15 15 15 15 15 15 15 15
15 15 16 17 17 17 16 16 16 16 16 16 15 14 14 14 14 14 15 15 15 15 15 15 15 16 15 15 15 15 15 15 15 15 15 15 15 15 14 14 14 14 14 14
14 15 15 15 15 16 16 16 16 15 16 15 14 14 14 14 14 14 14 14 14 14 14 14 14 15 14 14 14 14 14 14 14 14 14 14 14 14 14 13 13 13 13 13
14 14 14 15 15 16 16 16 16 15 15 15 14 14 13 13 13 13 13 14 14 14 14 13 13 13 13 13 13 13 13 13 13 13 13 13 13 13 13 13 13 13 13 12
13 14 14 14 15 15 15 15 15 15 15 15 14 14 13 13 13 13 13 13 13 13 13 12 12 12 12 12 13 13 12 12 12 12 12 12 12 12 12 12 12 12 12 12
14 14 13 14 14 15 15 14 14 14 14 14 14 13 13 13 13 13 12 12 12 12 12 12 12 11 11 11 12 12 12 12 11 11 12 12 12 12 11 11 11 11 11 11
14 14 14 14 14 15 14 14 14 14 14 13 13 13 13 13 12 12 12 12 12 11 11 11 11 11 11 11 11 11 11 11 11 11 11 11 11 11 11 11 11 11 11 11
14 14 13 13 14 14 14 14 14 13 13 13 13 13 13 12 12 12 12 11 11 11 11 11 11 11 10 10 10 10 10 10 10 10 10 10 11 11 10 10 10 10 10 10
14 14 14 13 13 13 14 14 13 13 13 13 13 12 12 12 12 12 11 11 11 11 11 11 10 10 10 10 10 10 10 10 10 10 10 10 10 10 10 10 10 10 10 10
14 13 13 13 13 13 13 13 13 12 12 12 12 12 12 12 11 11 11 11 11 11 10 10 10 10 10 10 10 10 9 9 9 9 9 9 9 9 9 9 9 9 9 9
13 13 13 13 13 13 13 13 12 12 12 12 12 12 11 11 11 11 11 10 10 10 10 10 10 10 9 9 9 9 9 9 9 9 9 9 9 8 8 8 8 8 8 8
14 13 13 13 13 12 12 12 12 12 12 12 11 11 11 11 11 10 10 10 10 10 10 9 9 9 9 9 9 9 9 8 8 8 8 8 8 8 8 7 7 7 7 7
13 13 13 13 13 12 12 12 12 12 11 11 11 11 11 10 10 10 10 10 9 9 9 9 9 9 8 8 8 8 8 8 8 7 7 7 7 7 7 6 6 6 6 6
12 13 12 12 12 12 12 12 11 11 11 11 11 10 10 10 10 10 9 9 9 9 8 8 8 8 8 7 7 7 7 7 7 6 6 6 6 6 6 5 5 5 5 5
12 12 12 12 12 12 11 11 11 11 11 11 10 10 10 9 9 9 9 9 8 8 8 8 7 7 7 7 7 6 6 6 6 6 5 5 5 5 5 4 4 4 4 4
12 12 11 11 11 11 11 11 11 10 10 10 10 10 9 9 9 9 8 8 8 7 7 7 7 6 6 6 6 6 5 5 5 5 4 4 4 4 4 4 3 3 3 3
11 11 11 11 11 11 11 10 10 10 10 10 10 9 9 9 9 8 8 8 7 7 7 6 6 6 6 5 5 5 5 4 4 4 4 3 3 3 3 3 2 2 2 2
11 11 11 11 11 10 10 10 10 10 10 9 9 9 9 8 8 8 7 7 7 7 6 6 6 5 5 5 4 4 4 4 3 3 3 3 2 2 2 2 2 2 1 1
11 10 10 10 10 10 10 9 9 9 9 9 8 8 8 8 7 7 7 7 6 6 6 5 5 5 4 4 4 3 3 3 3 2 2 2 2 2 2 1 1 1 1 1
10 10 10 10 9 9 9 9 9 8 8 8 8 7 7 7 7 6 6 6 6 5 5 5 4 4 4 3 3 3 2 2 2 2 2 1 1 1 1 1 1 1 1 1
10 9 9 9 9 9 8 8 8 8 7 7 7 7 6 6 6 6 6 5 5 5 4 4 4 3 3 3 2 2 2 2 2 1 1 1 1 1 1 1 1 0 1 1
Wind_Speed
6 7 4 4 6 5 5 7 7 7 8 7 6 4 4 4 5 5 5 5 7 8 9 9 9 9 10 10 10 11 11 12 12 10 9 8 8 8 9 9 10 9 9 9
4 3 2 4 6 6 5 5 5 6 3 2 2 4 5 5 6 5 3 4 5 6 7 9 10 10 10 10 10 10 11 11 9 8 8 8 8 8 8 9 8 9 9 9
3 4 3 4 4 4 3 3 7 7 6 7 6 6 5 6 7 6 4 3 4 4 5 6 7 8 9 9 8 8 8 8 7 8 9 9 10 9 9 10 9 8 9 8
2 1 4 6 2 2 4 1 2 5 8 10 10 8 7 6 7 7 7 6 4 3 3 3 4 5 5 5 6 6 5 4 4 5 6 6 6 7 7 6 7 8 8 8
3 3 4 4 1 1 4 1 2 9 13 13 14 13 10 8 9 9 9 8 6 5 6 6 5 5 7 6 6 5 4 3 3 4 4 3 4 5 5 5 6 7 7 8
3 3 5 5 2 1 5 2 1 9 14 12 8 7 5 5 9 10 10 10 9 9 10 10 7 7 10 8 7 6 4 3 3 3 3 3 3 3 3 3 5 5 5 5
4 3 4 4 3 1 4 6 5 8 10 9 6 7 9 10 10 10 11 11 11 12 12 9 8 10 11 9 7 4 4 4 4 3 2 2 2 2 2 2 2 2 3 3
3 4 4 3 0 3 4 5 8 9 11 14 15 15 13 13 11 11 12 11 11 12 11 9 8 10 11 8 5 5 6 6 6 4 3 2 2 1 1 2 2 2 1 1
3 3 1 2 2 2 6 10 9 10 14 17 17 15 14 13 11 11 11 10 9 11 11 10 9 9 9 6 5 6 7 6 5 5 5 4 3 2 2 1 1 1 2 1
0 1 2 3 4 5 9 12 11 13 15 17 17 15 13 12 10 10 10 10 9 11 12 10 9 9 8 6 6 7 7 5 5 5 5 4 3 3 2 1 1 2 1 1
1 1 4 6 6 10 13 14 15 15 15 16 18 15 13 11 10 10 9 8 8 9 9 8 8 9 8 8 8 8 7 6 5 4 4 4 3 2 2 0 2 2 2 2
2 2 4 4 7 12 15 15 17 18 16 14 15 14 13 11 9 8 8 8 8 8 8 7 8 8 7 7 8 8 7 6 5 4 3 3 3 3 4 2 1 1 2 3
4 6 8 7 9 12 15 15 16 17 17 14 12 12 11 9 8 8 8 8 7 7 6 6 7 7 6 6 7 7 6 5 4 3 3 3 3 2 3 5 4 2 2 3
7 9 10 9 11 13 16 17 16 16 14 13 11 11 11 9 8 7 6 5 6 6 6 6 6 6 5 6 7 7 6 5 5 3 3 3 3 2 1 2 3 4 4 4
10 10 12 13 14 14 14 16 16 14 13 11 10 10 9 9 7 6 5 5 7 7 6 6 6 5 5 5 6 6 5 4 4 4 3 3 3 3 3 3 3 3 3 5
13 14 15 16 15 14 14 14 14 11 11 10 9 8 7 8 7 6 6 6 6 5 4 4 5 4 5 5 5 4 4 6 5 3 4 4 4 4 3 3 3 3 3 4
14 12 13 14 13 13 12 11 11 10 9 9 8 8 8 8 8 7 6 5 5 4 3 4 3 4 5 5 5 4 4 5 7 5 4 3 3 3 3 3 3 3 3 4
12 11 12 13 13 13 11 10 10 10 8 8 9 8 8 8 6 5 4 5 6 6 5 3 4 4 6 6 4 4 4 4 3 3 3 4 4 4 4 3 3 4 4 4
14 14 13 12 11 11 10 9 8 7 7 8 8 7 6 5 5 4 4 6 6 5 4 4 6 5 5 7 7 4 5 4 4 4 3 5 5 4 4 4 4 4 4 4
13 12 13 11 10 9 8 7 8 7 6 7 7 6 5 4 4 4 5 4 2 0 1 4 5 4 5 6 8 5 5 5 5 4 4 4 4 4 4 4 4 4 4 4
11 11 11 9 8 8 7 7 7 6 4 5 6 5 4 3 3 4 4 3 2 1 3 5 4 3 4 5 6 4 4 4 4 4 4 4 4 4 4 5 5 5 5 5
8 9 9 8 7 6 4 5 5 4 4 4 4 4 4 3 3 3 2 2 1 2 2 2 2 3 5 6 4 4 4 4 4 3 4 4 4 4 4 5 5 5 5 5
7 7 7 6 5 5 5 5 5 5 5 4 3 3 3 2 2 3 0 1 1 2 2 1 2 5 6 4 3 4 4 4 3 3 3 3 3 3 4 5 5 5 5 5
6 6 5 5 6 7 5 3 3 3 4 3 3 3 3 2 1 0 2 2 2 3 1 1 3 5 4 3 3 3 3 3 3 3 3 3 4 4 4 5 5 5 5 6
5 5 5 5 5 3 2 3 4 4 5 4 4 4 3 2 1 1 1 2 3 4 2 2 4 4 3 2 3 3 3 3 3 3 4 4 4 5 5 5 5 5 6 6
3 3 3 3 3 2 2 3 3 2 2 2 2 2 2 1 2 2 2 2 3 4 3 2 2 3 3 3 4 4 3 4 4 4 5 4 5 5 5 6 7 6 6 6
4 3 4 4 3 3 3 3 3 2 2 2 1 1 1 1 2 2 3 3 3 3 3 3 3 3 4 4 4 4 4 4 4 5 5 5 5 5 6 6 6 5 5 6
Wind_Direction
251 246 224 245 245 206 183 181 178 203 192 214 216 196 187 174 159 135 140 149 164 175 180 177 176 181 184 189 189 188 188 197 203 203 202 201 200 202 199 196 197 195 196 200
308 304 309 287 259 224 199 180 172 162 195 177 153 105 82 107 124 117 122 140 147 155 166 174 178 184 186 188 189 185 191 199 199 195 198 202 204 206 204 203 201 195 199 200
272 299 349 277 257 232 198 182 163 180 188 144 119 110 110 97 87 93 97 121 132 146 167 178 182 183 186 189 185 181 189 194 197 195 200 207 208 205 210 210 203 199 201 198
215 351 235 244 281 124 129 103 134 138 144 141 126 104 78 78 90 80 70 77 81 93 122 133 138 142 144 145 149 156 169 175 176 181 190 194 195 203 208 206 200 203 206 205
164 211 250 269 304 129 123 64 126 135 135 131 118 87 57 44 73 82 77 72 66 69 83 82 89 104 103 101 112 125 137 157 167 161 165 183 204 210 207 200 202 207 204 208
167 195 223 237 273 201 113 87 180 145 147 147 130 109 104 75 77 76 72 70 66 62 65 66 65 82 86 84 83 86 96 120 127 134 154 181 207 211 203 190 200 201 206 210
182 208 251 264 288 41 145 191 169 145 143 134 114 119 123 105 87 80 77 72 72 70 66 60 65 82 82 75 71 72 80 81 83 95 128 164 187 194 172 167 173 195 206 217
175 192 238 302 356 170 175 133 130 122 115 106 106 108 104 97 88 82 79 72 71 73 66 53 58 79 79 69 54 56 63 65 62 58 58 67 81 87 126 152 161 189 192 206
194 214 290 21 74 108 120 115 117 123 119 117 111 107 103 96 91 85 82 77 72 75 69 55 49 62 70 53 54 63 61 58 57 55 50 54 68 64 52 98 157 172 151 144
199 55 50 54 70 85 102 107 112 119 120 116 111 109 104 99 94 87 80 78 76 76 71 58 48 52 53 43 53 64 60 47 44 49 41 37 48 61 75 75 96 103 119 141
133 113 58 53 75 94 95 99 103 105 107 111 110 107 105 100 94 90 86 79 78 80 76 65 53 49 44 45 53 57 52 45 40 39 42 38 32 35 55 72 148 144 165 170
196 188 126 106 98 103 100 103 110 108 102 100 106 107 104 98 94 92 88 81 78 75 74 66 60 51 40 43 53 55 46 37 35 32 31 35 34 19 16 16 17 101 185 186
126 101 100 104 92 102 105 108 109 109 110 107 101 103 102 98 92 90 87 85 84 81 76 70 61 48 33 37 46 47 42 32 29 28 26 20 20 23 359 351 357 344 293 262
112 106 96 97 100 102 105 105 101 98 99 103 102 100 99 96 93 92 92 95 93 85 74 66 59 40 22 34 42 38 32 24 21 13 12 16 19 10 1 349 341 337 321 302
87 102 109 106 102 100 102 103 101 99 99 96 98 101 102 100 96 93 91 91 85 76 65 59 51 26 16 37 41 32 26 14 10 8 9 10 12 17 11 5 356 336 337 339
99 98 100 100 101 101 103 104 105 105 105 103 99 97 97 95 89 80 79 87 88 77 60 58 47 19 24 35 32 17 2 4 17 12 2 2 7 13 15 9 7 4 354 339
105 103 104 103 101 100 100 103 105 106 103 101 100 96 91 85 77 70 65 67 81 77 70 69 49 28 30 32 29 13 2 357 10 16 9 10 11 10 9 12 11 4 346 345
101 106 110 112 111 107 102 100 101 100 101 103 100 94 90 89 88 80 70 64 60 51 39 46 56 48 31 21 19 10 9 8 15 19 21 23 17 14 13 11 5 360 344 349
97 99 98 97 100 101 100 99 97 95 95 98 98 95 93 91 89 84 76 69 65 53 12 25 51 50 27 12 19 16 17 20 17 18 22 21 22 20 16 8 359 352 348 351
91 92 92 91 90 96 99 99 96 91 93 97 93 85 74 70 80 87 84 69 54 103 61 54 50 35 18 12 25 25 25 26 26 22 21 18 14 11 9 8 5 357 352 349
96 95 94 93 90 91 96 99 99 97 97 100 103 105 98 82 86 97 91 68 345 33 76 61 52 30 14 14 24 30 33 35 29 23 19 14 13 14 10 4 359 353 348 344
94 95 96 97 94 89 91 98 105 107 102 99 102 106 99 86 84 86 99 163 203 107 82 57 47 35 30 31 33 35 34 30 26 22 19 16 17 12 3 356 350 345 342 339
92 96 96 95 96 91 78 80 87 96 106 112 114 121 129 139 137 131 179 255 171 115 95 59 44 44 43 45 40 33 29 27 25 20 16 14 9 358 348 344 339 337 337 338
88 86 89 90 86 81 75 62 70 81 88 83 83 94 106 93 53 73 185 172 142 118 88 65 55 54 59 60 45 35 30 28 21 13 13 8 357 351 344 339 337 339 340 340
90 86 86 87 87 92 93 75 64 60 64 62 57 56 68 102 136 168 118 105 107 103 87 64 59 60 60 53 47 43 34 33 33 24 13 3 357 355 352 350 350 348 346 345
98 99 94 99 109 107 93 87 82 72 76 67 38 22 26 52 87 94 94 94 96 99 87 62 51 51 51 51 51 48 39 29 28 24 17 15 11 9 5 3 1 1 357 356
70 75 76 62 49 67 81 86 89 83 80 90 47 350 12 61 76 79 88 88 82 82 77 68 58 56 55 56 54 45 39 35 31 28 25 24 20 15 10 8 5 2 359 1
Height
1462 1456 1455 1456 1456 1456 1462 1466 1473 1471 1468 1462 1460 1460 1461 1462 1464 1465 1467 1469 1471 1474 1476 1479 1481 1485 1487 1490 1493 1496 1499 1501 1504 1507 1510 1513 1515 1517 1520 1521 1523 1524 1526 1527
1462 1454 1453 1455 1452 1450 1453 1456 1461 1462 1465 1459 1460 1460 1460 1461 1464 1465 1467 1469 1470 1472 1475 1477 1479 1482 1485 1487 1490 1493 1495 1498 1500 1504 1506 1509 1511 1513 1515 1517 1519 1520 1522 1523
1470 1459 1456 1462 1453 1451 1451 1449 1453 1461 1460 1458 1461 1462 1463 1463 1465 1466 1468 1468 1470 1472 1473 1475 1478 1480 1482 1485 1488 1490 1492 1494 1497 1500 1502 1504 1507 1509 1511 1512 1513 1515 1516 1517
1470 1467 1473 1459 1446 1445 1447 1448 1448 1450 1453 1456 1460 1463 1465 1467 1467 1468 1468 1469 1470 1471 1473 1475 1477 1479 1481 1483 1486 1488 1490 1493 1495 1497 1499 1501 1503 1504 1506 1507 1508 1510 1510 1512
1472 1474 1466 1454 1447 1447 1451 1453 1449 1450 1454 1459 1461 1464 1470 1471 1470 1470 1470 1470 1470 1471 1472 1474 1476 1478 1480 1481 1484 1486 1489 1492 1493 1494 1496 1497 1498 1499 1501 1502 1503 1504 1505 1507
1469 1472 1470 1455 1445 1444 1447 1457 1451 1450 1453 1457 1459 1468 1475 1474 1474 1473 1472 1472 1472 1472 1473 1475 1477 1479 1480 1481 1483 1485 1487 1489 1491 1492 1493 1494 1495 1495 1496 1497 1499 1500 1501 1502
1465 1467 1459 1448 1443 1444 1457 1456 1450 1451 1453 1455 1459 1466 1472 1473 1475 1475 1475 1475 1475 1475 1475 1476 1478 1479 1480 1481 1483 1485 1486 1487 1488 1489 1490 1491 1492 1493 1493 1493 1495 1496 1496 1497
1462 1465 1462 1446 1444 1447 1448 1446 1449 1452 1455 1458 1461 1467 1471 1474 1476 1477 1477 1478 1478 1477 1478 1480 1480 1481 1480 1482 1484 1485 1486 1485 1486 1487 1488 1489 1489 1490 1490 1491 1492 1492 1493 1493
1457 1458 1450 1446 1445 1445 1444 1446 1450 1454 1457 1461 1464 1469 1473 1476 1478 1480 1480 1481 1481 1481 1482 1483 1483 1483 1483 1484 1485 1486 1486 1486 1486 1487 1487 1488 1488 1488 1488 1489 1489 1490 1490 1490
1454 1452 1449 1448 1447 1446 1447 1449 1452 1456 1459 1463 1466 1472 1476 1479 1482 1483 1483 1484 1485 1485 1485 1486 1487 1487 1487 1487 1487 1487 1486 1487 1487 1487 1487 1487 1488 1488 1488 1488 1487 1487 1487 1487
1453 1451 1450 1450 1449 1450 1451 1454 1458 1461 1464 1467 1470 1476 1480 1482 1484 1486 1487 1488 1488 1488 1489 1490 1490 1490 1490 1489 1489 1488 1487 1487 1488 1488 1488 1487 1487 1487 1487 1487 1487 1486 1486 1486
1454 1451 1452 1454 1453 1454 1455 1459 1462 1465 1470 1474 1476 1479 1483 1485 1488 1489 1490 1491 1491 1492 1492 1493 1493 1493 1492 1492 1491 1490 1489 1489 1489 1489 1488 1488 1487 1487 1486 1486 1485 1485 1484 1484
1451 1452 1454 1456 1457 1458 1460 1464 1468 1470 1474 1478 1482 1485 1487 1489 1491 1493 1494 1494 1494 1495 1495 1495 1495 1495 1494 1494 1493 1491 1491 1490 1490 1489 1488 1488 1487 1486 1485 1485 1484 1484 1483 1482
1453 1455 1458 1460 1462 1464 1466 1470 1473 1476 1480 1483 1486 1489 1491 1493 1494 1495 1496 1497 1497 1497 1497 1497 1496 1496 1496 1495 1494 1493 1492 1491 1490 1489 1488 1487 1486 1485 1484 1483 1482 1481 1481 1480
1458 1459 1462 1465 1468 1470 1473 1476 1479 1482 1485 1488 1491 1493 1494 1496 1497 1498 1499 1499 1499 1499 1499 1499 1498 1497 1497 1496 1495 1494 1492 1491 1490 1489 1488 1486 1485 1484 1483 1482 1480 1479 1478 1477
1464 1467 1468 1471 1473 1477 1479 1481 1483 1487 1489 1492 1494 1496 1497 1498 1499 1500 1500 1501 1500 1500 1500 1500 1499 1498 1498 1496 1495 1494 1492 1491 1489 1488 1486 1485 1484 1482 1481 1480 1478 1477 1475 1474
1468 1472 1474 1476 1479 1482 1484 1486 1488 1490 1493 1495 1497 1498 1499 1500 1501 1501 1502 1502 1502 1501 1501 1500 1500 1499 1498 1496 1495 1493 1491 1490 1488 1487 1485 1484 1482 1481 1479 1477 1476 1474 1473 1471
1473 1476 1478 1480 1482 1485 1488 1490 1492 1494 1496 1498 1499 1500 1501 1502 1502 1503 1503 1503 1502 1502 1501 1500 1500 1498 1497 1496 1494 1492 1490 1489 1487 1485 1483 1482 1480 1479 1477 1475 1473 1471 1469 1467
1478 1480 1483 1485 1487 1489 1491 1494 1496 1497 1499 1500 1501 1502 1503 1503 1504 1504 1504 1503 1502 1501 1501 1500 1499 1498 1496 1495 1493 1491 1489 1487 1485 1483 1481 1480 1478 1476 1474 1472 1470 1468 1466 1463
1484 1486 1488 1490 1492 1494 1495 1497 1499 1500 1501 1502 1503 1503 1504 1504 1504 1504 1503 1503 1502 1501 1500 1499 1498 1497 1495 1493 1491 1489 1487 1485 1483 1481 1479 1477 1475 1473 1471 1469 1467 1465 1462 1459
1489 1490 1492 1494 1496 1497 1499 1500 1501 1502 1503 1503 1504 1504 1504 1504 1504 1503 1503 1502 1502 1501 1500 1498 1497 1495 1493 1491 1489 1487 1485 1483 1481 1479 1477 1475 1473 1471 1468 1466 1464 1461 1458 1456
1493 1494 1496 1498 1499 1500 1501 1501 1502 1502 1503 1504 1504 1504 1504 1503 1503 1503 1502 1502 1501 1500 1498 1497 1495 1493 1492 1490 1487 1485 1483 1481 1479 1477 1475 1473 1471 1468 1466 1463 1460 1458 1455 1452
1496 1497 1498 1499 1500 1501 1502 1502 1502 1503 1503 1504 1503 1503 1503 1502 1502 1501 1501 1500 1499 1498 1496 1495 1493 1492 1490 1488 1486 1484 1482 1480 1478 1475 1473 1471 1468 1466 1463 1460 1457 1454 1452 1449
1498 1499 1500 1501 1501 1502 1502 1502 1502 1503 1503 1503 1502 1502 1501 1501 1500 1500 1499 1498 1497 1495 1494 1493 1491 1489 1488 1486 1484 1482 1480 1478 1476 1474 1471 1469 1466 1463 1461 1458 1455 1452 1449 1446
1499 1500 1500 1501 1501 1502 1502 1502 1502 1502 1502 1502 1501 1501 1500 1499 1499 1497 1496 1495 1494 1493 1492 1490 1489 1488 1486 1484 1482 1480 1478 1476 1474 1472 1469 1467 1464 1461 1459 1456 1453 1450 1447 1444
1499 1500 1500 1501 1501 1501 1501 1501 1501 1501 1501 1500 1500 1499 1498 1497 1496 1495 1494 1493 1492 1491 1490 1489 1487 1486 1484 1482 1480 1479 1477 1475 1473 1470 1468 1465 1463 1460 1457 1455 1452 1449 1446 1443
1500 1500 1500 1501 1501 1501 1501 1500 1500 1500 1499 1498 1498 1497 1496 1495 1494 1493 1492 1491 1490 1489 1488 1487 1486 1484 1483 1481 1479 1478 1476 1474 1472 1470 1467 1465 1462 1460 1457 1454 1451 1449 1446 1442